When you browse on this site, cookies collect data to enhance your experience and personalize the content and advertising you see.
Visit our Privacy Policy to learn more. By continuing to use the site, you agree to this use of cookies and data.
  • en Suisse
  • Liste des pays
  • À 7 jours
  • Température de l'eau
  • Carte satellitaire
  • Carte météo
  • Widgets météo
  • user-avatar
    Se connecter

    Météo par heure à Maturín

    Ce jour, 16 Juillet, Mardi

    Heure Température Précipitation Vent Pression Humidité
    00:00 +25°C° 0 mm 1 m/s 756 mmHg 94%
    01:00 +25°C° 0 mm 1 m/s 756 mmHg 95%
    02:00 +25°C° 0 mm 1 m/s 755 mmHg 95%
    03:00 +25°C° 0 mm 1 m/s 755 mmHg 95%
    04:00 +24°C° 0 mm 1 m/s 755 mmHg 96%
    05:00 +24°C° 0 mm 1 m/s 755 mmHg 96%
    06:00 +26°C° 0 mm 1 m/s 756 mmHg 91%
    07:00 +27°C° 0 mm 1 m/s 756 mmHg 86%
    08:00 +28°C° 0 mm 2 m/s 756 mmHg 81%
    09:00 +29°C° 0.1 mm 2 m/s 757 mmHg 75%
    10:00 +31°C° 0.1 mm 3 m/s 757 mmHg 69%
    11:00 +33°C° 0.1 mm 3 m/s 757 mmHg 64%
    12:00 +33°C° 0.7 mm 4 m/s 756 mmHg 64%
    13:00 +33°C° 0.7 mm 4 m/s 756 mmHg 63%
    14:00 +33°C° 0.7 mm 4 m/s 755 mmHg 63%
    15:00 +33°C° 0.1 mm 4 m/s 755 mmHg 64%
    16:00 +32°C° 0.1 mm 4 m/s 755 mmHg 65%
    17:00 +31°C° 0.1 mm 3 m/s 755 mmHg 66%
    18:00 +29°C° 0 mm 3 m/s 755 mmHg 72%
    19:00 +28°C° 0 mm 2 m/s 755 mmHg 77%
    20:00 +27°C° 0 mm 2 m/s 756 mmHg 83%
    21:00 +26°C° 0 mm 2 m/s 756 mmHg 86%
    22:00 +26°C° 0 mm 1 m/s 757 mmHg 89%
    23:00 +25°C° 0 mm 1 m/s 757 mmHg 92%

    Demain, 17 Juillet, Mercredi

    Heure Température Précipitation Vent Pression Humidité
    00:00 +25°C° 0 mm 1 m/s 757 mmHg 93%
    01:00 +25°C° 0 mm 1 m/s 756 mmHg 93%
    02:00 +25°C° 0 mm 1 m/s 756 mmHg 94%
    03:00 +25°C° 0 mm 1 m/s 756 mmHg 93%
    04:00 +25°C° 0 mm 1 m/s 756 mmHg 92%
    05:00 +26°C° 0 mm 1 m/s 756 mmHg 91%
    06:00 +26°C° 0 mm 1 m/s 756 mmHg 89%
    07:00 +27°C° 0 mm 1 m/s 756 mmHg 87%
    08:00 +28°C° 0 mm 1 m/s 757 mmHg 85%
    09:00 +29°C° 1.1 mm 1 m/s 757 mmHg 82%
    10:00 +30°C° 1.1 mm 1 m/s 757 mmHg 80%
    11:00 +31°C° 1.1 mm 2 m/s 757 mmHg 77%
    12:00 +31°C° 1.5 mm 2 m/s 756 mmHg 77%
    13:00 +31°C° 1.5 mm 2 m/s 756 mmHg 76%
    14:00 +31°C° 1.5 mm 2 m/s 755 mmHg 76%
    15:00 +31°C° 0.5 mm 2 m/s 755 mmHg 77%
    16:00 +30°C° 0.5 mm 3 m/s 754 mmHg 79%
    17:00 +29°C° 0.5 mm 3 m/s 754 mmHg 81%
    18:00 +28°C° 0.1 mm 3 m/s 755 mmHg 84%
    19:00 +28°C° 0.1 mm 2 m/s 755 mmHg 88%
    20:00 +27°C° 0.1 mm 2 m/s 756 mmHg 91%
    21:00 +26°C° 0.1 mm 2 m/s 756 mmHg 92%
    22:00 +26°C° 0.1 mm 2 m/s 757 mmHg 93%
    23:00 +26°C° 0.1 mm 2 m/s 757 mmHg 93%

    Après-demain, 18 Juillet, Jeudi

    Heure Température Précipitation Vent Pression Humidité
    00:00 +26°C° 0.1 mm 2 m/s 757 mmHg 94%
    01:00 +26°C° 0.1 mm 1 m/s 756 mmHg 96%
    02:00 +26°C° 0.1 mm 1 m/s 756 mmHg 97%
    03:00 +25°C° 0.1 mm 1 m/s 756 mmHg 97%
    04:00 +25°C° 0.1 mm 1 m/s 756 mmHg 97%
    05:00 +25°C° 0.1 mm 1 m/s 756 mmHg 97%
    06:00 +26°C° 0.3 mm 1 m/s 757 mmHg 94%
    07:00 +27°C° 0.3 mm 1 m/s 757 mmHg 91%
    08:00 +28°C° 0.3 mm 1 m/s 757 mmHg 88%
    09:00 +29°C° 1.3 mm 2 m/s 757 mmHg 84%
    10:00 +30°C° 1.3 mm 2 m/s 757 mmHg 80%
    11:00 +31°C° 1.3 mm 2 m/s 757 mmHg 76%
    12:00 +32°C° 0.7 mm 2 m/s 757 mmHg 72%
    13:00 +32°C° 0.7 mm 2 m/s 756 mmHg 68%
    14:00 +34°C° 0.7 mm 2 m/s 755 mmHg 64%
    15:00 +32°C° 0.6 mm 2 m/s 755 mmHg 69%
    16:00 +31°C° 0.6 mm 3 m/s 755 mmHg 73%
    17:00 +30°C° 0.6 mm 3 m/s 754 mmHg 78%
    18:00 +29°C° 0 mm 3 m/s 755 mmHg 81%
    19:00 +28°C° 0 mm 2 m/s 756 mmHg 84%
    20:00 +26°C° 0 mm 2 m/s 756 mmHg 86%
    21:00 +26°C° 0 mm 2 m/s 757 mmHg 89%
    22:00 +26°C° 0 mm 2 m/s 757 mmHg 91%
    23:00 +25°C° 0 mm 1 m/s 757 mmHg 93%

    19 Juillet, Vendredi

    Heure Température Précipitation Vent Pression Humidité
    00:00 +25°C° 0 mm 1 m/s 757 mmHg 94%
    01:00 +25°C° 0 mm 1 m/s 756 mmHg 95%
    02:00 +24°C° 0 mm 1 m/s 756 mmHg 97%
    03:00 +24°C° 0 mm 1 m/s 756 mmHg 97%
    04:00 +24°C° 0 mm 1 m/s 756 mmHg 97%
    05:00 +22°C° 0 mm 0 m/s 756 mmHg 97%
    06:00 +25°C° 0 mm 1 m/s 757 mmHg 93%
    07:00 +27°C° 0 mm 1 m/s 757 mmHg 89%
    08:00 +28°C° 0 mm 1 m/s 757 mmHg 86%
    09:00 +29°C° 0 mm 1 m/s 757 mmHg 76%
    10:00 +31°C° 0 mm 2 m/s 757 mmHg 67%
    11:00 +34°C° 0 mm 2 m/s 757 mmHg 57%
    12:00 +34°C° 0.5 mm 2 m/s 756 mmHg 61%
    13:00 +33°C° 0.5 mm 3 m/s 756 mmHg 65%
    14:00 +33°C° 0.5 mm 3 m/s 755 mmHg 69%
    15:00 +33°C° 0.4 mm 3 m/s 755 mmHg 72%
    16:00 +31°C° 0.4 mm 3 m/s 754 mmHg 74%
    17:00 +30°C° 0.4 mm 3 m/s 754 mmHg 77%
    18:00 +29°C° 0 mm 3 m/s 754 mmHg 82%
    19:00 +28°C° 0 mm 2 m/s 755 mmHg 87%
    20:00 +27°C° 0 mm 2 m/s 756 mmHg 92%
    21:00 +26°C° 0.1 mm 2 m/s 756 mmHg 93%
    22:00 +26°C° 0.1 mm 2 m/s 757 mmHg 94%
    23:00 +26°C° 0.1 mm 2 m/s 757 mmHg 96%

    20 Juillet, Samedi

    Heure Température Précipitation Vent Pression Humidité
    00:00 +25°C° 0.2 mm 1 m/s 757 mmHg 96%
    01:00 +25°C° 0.2 mm 1 m/s 756 mmHg 97%
    02:00 +25°C° 0.2 mm 1 m/s 756 mmHg 97%
    03:00 +25°C° 0 mm 1 m/s 756 mmHg 98%
    04:00 +25°C° 0 mm 1 m/s 755 mmHg 98%
    05:00 +24°C° 0 mm 1 m/s 755 mmHg 98%
    06:00 +25°C° 0 mm 1 m/s 756 mmHg 96%
    07:00 +26°C° 0 mm 1 m/s 756 mmHg 93%
    08:00 +27°C° 0 mm 2 m/s 756 mmHg 90%
    09:00 +28°C° 0.6 mm 2 m/s 756 mmHg 87%
    10:00 +29°C° 0.6 mm 2 m/s 756 mmHg 83%
    11:00 +30°C° 0.6 mm 2 m/s 756 mmHg 80%
    12:00 +31°C° 0.3 mm 3 m/s 755 mmHg 74%
    13:00 +33°C° 0.3 mm 3 m/s 755 mmHg 69%
    14:00 +34°C° 0.3 mm 3 m/s 754 mmHg 63%
    15:00 +33°C° 0 mm 3 m/s 754 mmHg 64%
    16:00 +33°C° 0 mm 3 m/s 754 mmHg 64%
    17:00 +33°C° 0 mm 3 m/s 753 mmHg 65%
    18:00 +30°C° 0 mm 3 m/s 754 mmHg 73%
    19:00 +28°C° 0 mm 3 m/s 754 mmHg 81%
    20:00 +27°C° 0 mm 2 m/s 755 mmHg 89%
    21:00 +26°C° 0 mm 2 m/s 755 mmHg 91%
    22:00 +26°C° 0 mm 2 m/s 755 mmHg 92%
    23:00 +25°C° 0 mm 2 m/s 756 mmHg 94%

    21 Juillet, Dimanche

    Heure Température Précipitation Vent Pression Humidité
    00:00 +25°C° 0 mm 1 m/s 755 mmHg 95%
    01:00 +24°C° 0 mm 1 m/s 755 mmHg 97%
    02:00 +24°C° 0 mm 1 m/s 755 mmHg 98%
    03:00 +24°C° 0 mm 1 m/s 755 mmHg 98%
    04:00 +24°C° 0 mm 1 m/s 755 mmHg 97%
    05:00 +24°C° 0 mm 1 m/s 754 mmHg 97%
    06:00 +25°C° 0 mm 1 m/s 755 mmHg 93%
    07:00 +26°C° 0 mm 1 m/s 755 mmHg 89%
    08:00 +27°C° 0 mm 2 m/s 756 mmHg 85%
    09:00 +29°C° 0 mm 2 m/s 756 mmHg 77%
    10:00 +30°C° 0 mm 2 m/s 756 mmHg 68%
    11:00 +32°C° 0 mm 2 m/s 756 mmHg 60%
    12:00 +34°C° 0 mm 2 m/s 755 mmHg 55%
    13:00 +35°C° 0 mm 2 m/s 755 mmHg 50%
    14:00 +35°C° 0 mm 1 m/s 754 mmHg 45%
    15:00 +35°C° 0 mm 2 m/s 754 mmHg 50%
    16:00 +34°C° 0 mm 3 m/s 753 mmHg 54%
    17:00 +33°C° 0 mm 3 m/s 753 mmHg 59%
    18:00 +30°C° 0 mm 3 m/s 753 mmHg 66%
    19:00 +29°C° 0 mm 3 m/s 754 mmHg 74%
    20:00 +27°C° 0 mm 2 m/s 755 mmHg 81%
    21:00 +26°C° 0 mm 2 m/s 755 mmHg 84%
    22:00 +26°C° 0 mm 2 m/s 756 mmHg 87%
    23:00 +25°C° 0 mm 1 m/s 756 mmHg 91%
    Voir plus